Location: Four Corners
(38.2757°N, 122.4608°W)
Time: 14:39:50
(UTC+00:00)

OAO 2 Rocket - Pass Details

Date: 08 December 2019
Orbit: 676 x 746 km, 35.0° (Epoch: 22 January)

Event Time Altitude Azimuth Distance (km) Brightness Sun altitude
Rises 02:00:14 0° 250° (WSW) 3,042 8.7 -13.6°
Reaches altitude 10° 02:02:39 10° 246° (WSW) 2,136 7.2 -14.0°
Maximum altitude 02:07:31 53° 170° (S) 858 3.8 -14.9°
Enters shadow 02:10:42 21° 101° (E) 1,547 4.6 -15.5°
